IRIDIUM 31 [+]

Last updated on Wed May 30 2018 00:19:59 GMT+0000 (Coordinated Universal Time)

1 24950U 97051G 18149.45847284 -.00000015 00000-0 -11484-4 0 9997 2 24950 86.4212 142.5160 0002085 77.4643 282.6789 14.38609423 84240
UTC large
Height (km)
Speed (km/s)
/
Latitude / Longitude
Inclination (degrees)
Orbital Period (minutes)
Azimuth
Elevation
Range (km)
Doppler Factor

Next 0 passes for location: London (51.5072 / 0.1276)

Sorry there are no passes over London.